| time (UTC) | temp C | wind direction | speed KPH | gust KPH | rain 1hr cm | rain 24hr cm | rain mn cm | humidity % | barometer mb |
| 20260507115123 | 11 | 90 | 0.0 | 0.0 | 0.00 | 0.00 | 0.00 | 84 | 1013.0 |
| 20260507114624 | 11 | 30 | 0.0 | 1.6 | 0.00 | 0.00 | 0.00 | 84 | 1013.0 |
| 20260507114123 | 11 | 296 | 0.0 | 1.6 | 0.00 | 0.00 | 0.00 | 85 | 1013.0 |
| 20260507113623 | 11 | 179 | 0.0 | 1.6 | 0.00 | 0.00 | 0.00 | 85 | 1013.0 |
| 20260507113124 | 11 | 179 | 0.0 | 1.6 | 0.00 | 0.00 | 0.00 | 82 | 1013.0 |
| 20260507112623 | 11 | 315 | 0.0 | 1.6 | 0.00 | 0.00 | 0.00 | 85 | 1013.0 |
| 20260507111911 | 11 | 141 | 0.0 | 0.0 | 0.00 | 0.00 | 0.00 | 84 | 1013.0 |
| 20260507111411 | 11 | 90 | 0.0 | 1.6 | 0.00 | 0.00 | 0.00 | 85 | 1013.0 |
| 20260507110911 | 11 | 63 | 1.6 | 1.6 | 0.00 | 0.00 | 0.00 | 87 | 1013.0 |
| 20260507105947 | 11 | 134 | 0.0 | 1.6 | 0.00 | 0.00 | 0.00 | 87 | 1013.0 |
| 20260507105447 | 11 | 57 | 0.0 | 1.6 | 0.00 | 0.00 | 0.00 | 86 | 1013.0 |
| 20260507104948 | 11 | 90 | 0.0 | 0.0 | 0.00 | 0.00 | 0.00 | 87 | 1013.0 |
| 20260507104235 | 11 | 302 | 0.0 | 1.6 | 0.00 | 0.00 | 0.00 | 88 | 1013.0 |
| 20260507103736 | 11 | 301 | 0.0 | 1.6 | 0.00 | 0.00 | 0.00 | 88 | 1013.0 |
| 20260507103235 | 11 | 186 | 1.6 | 4.8 | 0.00 | 0.00 | 0.00 | 86 | 1013.0 |
| 20260507102735 | 11 | 179 | 0.0 | 4.8 | 0.00 | 0.00 | 0.00 | 86 | 1013.0 |
| 20260507102235 | 11 | 132 | 0.0 | 1.6 | 0.00 | 0.00 | 0.00 | 85 | 1013.0 |
| 20260507101736 | 11 | 122 | 0.0 | 0.0 | 0.00 | 0.00 | 0.00 | 86 | 1013.0 |
| 20260507101236 | 11 | 210 | 0.0 | 0.0 | 0.00 | 0.00 | 0.00 | 86 | 1013.0 |
| 20260507100735 | 11 | 179 | 0.0 | 1.6 | 0.00 | 0.00 | 0.00 | 87 | 1013.0 |
| 20260507100235 | 11 | 179 | 1.6 | 1.6 | 0.00 | 0.00 | 0.00 | 86 | 1013.0 |
| 20260507095522 | 11 | 53 | 0.0 | 1.6 | 0.00 | 0.00 | 0.00 | 88 | 1013.0 |
| 20260507095022 | 11 | 130 | 0.0 | 0.0 | 0.00 | 0.00 | 0.00 | 89 | 1013.0 |
| 20260507094312 | 11 | 133 | 0.0 | 1.6 | 0.00 | 0.00 | 0.00 | 88 | 1013.0 |
| 20260507093810 | 11 | 149 | 0.0 | 1.6 | 0.00 | 0.00 | 0.00 | 87 | 1012.0 |
| 20260507093310 | 11 | 66 | 1.6 | 1.6 | 0.00 | 0.00 | 0.00 | 87 | 1012.0 |
| 20260507092810 | 11 | 75 | 1.6 | 1.6 | 0.00 | 0.00 | 0.00 | 89 | 1013.0 |
| 20260507092311 | 11 | 179 | 0.0 | 1.6 | 0.00 | 0.00 | 0.00 | 89 | 1013.0 |
| 20260507091810 | 11 | 90 | 0.0 | 1.6 | 0.00 | 0.00 | 0.00 | 89 | 1013.0 |
| 20260507091312 | 11 | 90 | 1.6 | 1.6 | 0.00 | 0.00 | 0.00 | 88 | 1013.0 |
| 20260507090810 | 11 | 179 | 0.0 | 1.6 | 0.00 | 0.00 | 0.00 | 88 | 1013.0 |
| 20260507090310 | 11 | 159 | 0.0 | 1.6 | 0.00 | 0.00 | 0.00 | 87 | 1013.0 |
| 20260507085810 | 11 | 90 | 0.0 | 1.6 | 0.00 | 0.00 | 0.00 | 88 | 1013.0 |
| 20260507085310 | 11 | 131 | 0.0 | 1.6 | 0.00 | 0.00 | 0.00 | 87 | 1012.0 |
| 20260507084811 | 11 | 145 | 1.6 | 0.0 | 0.00 | 0.00 | 0.00 | 86 | 1012.0 |
| 20260507084310 | 11 | 131 | 0.0 | 1.6 | 0.00 | 0.00 | 0.00 | 88 | 1012.0 |
| 20260507083810 | 11 | 179 | 0.0 | 1.6 | 0.00 | 0.00 | 0.00 | 87 | 1012.0 |
| 20260507083310 | 11 | 156 | 0.0 | 1.6 | 0.00 | 0.00 | 0.00 | 87 | 1012.0 |
| 20260507082810 | 11 | 188 | 0.0 | 1.6 | 0.00 | 0.00 | 0.00 | 87 | 1012.0 |
| 20260507082310 | 10 | 179 | 0.0 | 3.2 | 0.00 | 0.00 | 0.00 | 87 | 1012.0 |
| 20260507081810 | 10 | 55 | 1.6 | 1.6 | 0.00 | 0.00 | 0.00 | 86 | 1012.0 |
| 20260507081100 | 10 | 90 | 0.0 | 3.2 | 0.00 | 0.00 | 0.00 | 88 | 1012.0 |
| 20260507080559 | 10 | 52 | 3.2 | 6.4 | 0.00 | 0.00 | 0.00 | 85 | 1012.0 |
| 20260507080059 | 10 | 51 | 3.2 | 9.7 | 0.00 | 0.00 | 0.00 | 84 | 1012.0 |
| 20260507075559 | 10 | 46 | 0.0 | 9.7 | 0.00 | 0.00 | 0.00 | 85 | 1012.0 |
| 20260507074634 | 10 | 29 | 3.2 | 9.7 | 0.00 | 0.00 | 0.00 | 86 | 1012.0 |
| 20260507073923 | 10 | 66 | 3.2 | 8.0 | 0.00 | 0.00 | 0.00 | 86 | 1012.0 |
| 20260507073423 | 10 | 26 | 4.8 | 11.3 | 0.00 | 0.00 | 0.00 | 84 | 1011.0 |
| 20260507072924 | 11 | 28 | 3.2 | 9.7 | 0.00 | 0.00 | 0.00 | 87 | 1012.0 |
| 20260507072422 | 11 | 31 | 6.4 | 11.3 | 0.00 | 0.00 | 0.00 | 85 | 1012.0 |
| 20260507071711 | 11 | 72 | 1.6 | 3.2 | 0.00 | 0.00 | 0.00 | 90 | 1012.0 |
| 20260507071213 | 11 | 16 | 1.6 | 4.8 | 0.00 | 0.00 | 0.00 | 89 | 1012.0 |
| 20260507070711 | 11 | 45 | 0.0 | 4.8 | 0.00 | 0.00 | 0.00 | 88 | 1011.0 |
| 20260507070211 | 11 | 25 | 1.6 | 3.2 | 0.00 | 0.00 | 0.00 | 88 | 1012.0 |
| 20260507065459 | 11 | 17 | 0.0 | 3.2 | 0.00 | 0.00 | 0.00 | 88 | 1012.0 |
| 20260507064747 | 11 | 24 | 1.6 | 4.8 | 0.00 | 0.00 | 0.00 | 88 | 1012.0 |
| 20260507064248 | 11 | 335 | 1.6 | 3.2 | 0.00 | 0.00 | 0.00 | 87 | 1012.0 |
| 20260507063747 | 12 | 254 | 0.0 | 1.6 | 0.00 | 0.00 | 0.00 | 90 | 1012.0 |
| 20260507063248 | 11 | 25 | 1.6 | 3.2 | 0.00 | 0.00 | 0.00 | 89 | 1012.0 |
| 20260507062747 | 11 | 17 | 1.6 | 8.0 | 0.00 | 0.00 | 0.00 | 88 | 1012.0 |
| 20260507062034 | 11 | 311 | 4.8 | 9.7 | 0.00 | 0.00 | 0.00 | 88 | 1011.0 |
| 20260507061536 | 12 | 25 | 4.8 | 4.8 | 0.00 | 0.00 | 0.00 | 90 | 1011.0 |
| 20260507061034 | 12 | 23 | 1.6 | 4.8 | 0.00 | 0.00 | 0.00 | 90 | 1012.0 |
| 20260507060536 | 12 | 0 | 0.0 | 1.6 | 0.00 | 0.00 | 0.00 | 90 | 1012.0 |
| 20260507060034 | 12 | 327 | 1.6 | 4.8 | 0.00 | 0.00 | 0.00 | 91 | 1012.0 |
| 20260507055323 | 11 | 16 | 3.2 | 4.8 | 0.00 | 0.00 | 0.00 | 91 | 1011.0 |
| 20260507054822 | 12 | 326 | 1.6 | 3.2 | 0.00 | 0.00 | 0.00 | 92 | 1012.0 |
| 20260507054322 | 11 | 304 | 1.6 | 6.4 | 0.00 | 0.00 | 0.00 | 91 | 1012.0 |
| 20260507053823 | 11 | 37 | 1.6 | 4.8 | 0.00 | 0.00 | 0.00 | 92 | 1012.0 |
| 20260507053324 | 11 | 26 | 0.0 | 4.8 | 0.00 | 0.00 | 0.00 | 92 | 1012.0 |
| 20260507052824 | 11 | 327 | 0.0 | 6.4 | 0.00 | 0.00 | 0.00 | 91 | 1012.0 |
| 20260507052322 | 12 | 38 | 1.6 | 6.4 | 0.00 | 0.00 | 0.00 | 90 | 1012.0 |
| 20260507051358 | 12 | 140 | 0.0 | 4.8 | 0.00 | 0.00 | 0.00 | 91 | 1012.0 |
| 20260507050858 | 12 | 56 | 4.8 | 6.4 | 0.00 | 0.00 | 0.00 | 88 | 1012.0 |
| 20260507050358 | 12 | 278 | 1.6 | 9.7 | 0.00 | 0.00 | 0.00 | 89 | 1012.0 |
| 20260507045859 | 12 | 17 | 4.8 | 6.4 | 0.00 | 0.00 | 0.00 | 84 | 1012.0 |
| 20260507045358 | 13 | 336 | 3.2 | 6.4 | 0.00 | 0.00 | 0.00 | 80 | 1012.0 |
| 20260507044858 | 14 | 44 | 1.6 | 3.2 | 0.00 | 0.00 | 0.00 | 79 | 1012.0 |
| 20260507044358 | 14 | 56 | 0.0 | 6.4 | 0.00 | 0.00 | 0.00 | 72 | 1012.0 |
| 20260507043858 | 15 | 63 | 0.0 | 9.7 | 0.00 | 0.00 | 0.00 | 72 | 1012.0 |
| 20260507043359 | 15 | 14 | 1.6 | 12.9 | 0.00 | 0.00 | 0.00 | 71 | 1012.0 |
| 20260507042858 | 15 | 44 | 3.2 | 6.4 | 0.00 | 0.00 | 0.00 | 72 | 1012.0 |
| 20260507042147 | 15 | 36 | 4.8 | 4.8 | 0.00 | 0.00 | 0.00 | 72 | 1012.0 |
| 20260507041645 | 16 | 64 | 1.6 | 4.8 | 0.00 | 0.00 | 0.00 | 71 | 1012.0 |
| 20260507041145 | 16 | 203 | 0.0 | 4.8 | 0.00 | 0.00 | 0.00 | 70 | 1012.0 |
| 20260507040647 | 16 | 312 | 0.0 | 6.4 | 0.00 | 0.00 | 0.00 | 70 | 1011.0 |
| 20260507040145 | 16 | 39 | 3.2 | 3.2 | 0.00 | 0.00 | 0.00 | 69 | 1011.0 |
| 20260507035645 | 16 | 234 | 1.6 | 3.2 | 0.00 | 0.00 | 0.00 | 68 | 1011.0 |
| 20260507035145 | 16 | 52 | 1.6 | 4.8 | 0.00 | 0.00 | 0.00 | 68 | 1011.0 |
| 20260507034646 | 16 | 296 | 3.2 | 4.8 | 0.00 | 0.00 | 0.00 | 68 | 1011.0 |
| 20260507034145 | 16 | 327 | 1.6 | 3.2 | 0.00 | 0.00 | 0.00 | 67 | 1011.0 |
| 20260507033646 | 16 | 136 | 0.0 | 4.8 | 0.00 | 0.00 | 0.00 | 68 | 1011.0 |
| 20260507033145 | 16 | 33 | 3.2 | 4.8 | 0.00 | 0.00 | 0.00 | 68 | 1011.0 |
| 20260507032645 | 16 | 307 | 0.0 | 4.8 | 0.00 | 0.00 | 0.00 | 70 | 1011.0 |
| 20260507032145 | 16 | 279 | 1.6 | 4.8 | 0.00 | 0.00 | 0.00 | 68 | 1011.0 |
| 20260507031646 | 16 | 330 | 3.2 | 6.4 | 0.00 | 0.00 | 0.00 | 68 | 1011.0 |
| 20260507031145 | 16 | 323 | 3.2 | 4.8 | 0.00 | 0.00 | 0.00 | 69 | 1011.0 |
| 20260507030646 | 17 | 27 | 3.2 | 8.0 | 0.00 | 0.00 | 0.00 | 68 | 1011.0 |
| 20260507030146 | 17 | 33 | 8.0 | 11.3 | 0.00 | 0.00 | 0.00 | 68 | 1011.0 |
| 20260507025645 | 17 | 51 | 0.0 | 1.6 | 0.00 | 0.00 | 0.00 | 68 | 1011.0 |
| 20260507025145 | 17 | 46 | 1.6 | 6.4 | 0.00 | 0.00 | 0.00 | 70 | 1011.0 |
| 20260507024434 | 17 | 38 | 3.2 | 11.3 | 0.00 | 0.00 | 0.00 | 71 | 1011.0 |
| 20260507023934 | 17 | 320 | 1.6 | 12.9 | 0.00 | 0.00 | 0.00 | 73 | 1011.0 |
| 20260507023434 | 17 | 320 | 3.2 | 6.4 | 0.00 | 0.00 | 0.00 | 74 | 1011.0 |
| 20260507022934 | 17 | 23 | 1.6 | 8.0 | 0.00 | 0.00 | 0.00 | 74 | 1011.0 |
| 20260507022434 | 17 | 40 | 4.8 | 12.9 | 0.00 | 0.00 | 0.00 | 75 | 1011.0 |
| 20260507021934 | 18 | 32 | 1.6 | 6.4 | 0.00 | 0.00 | 0.00 | 76 | 1010.0 |
| 20260507021223 | 18 | 33 | 1.6 | 6.4 | 0.00 | 0.00 | 0.00 | 75 | 1010.0 |
| 20260507020258 | 18 | 10 | 3.2 | 4.8 | 0.00 | 0.00 | 0.00 | 74 | 1011.0 |
| 20260507015759 | 18 | 305 | 0.0 | 1.6 | 0.00 | 0.00 | 0.00 | 73 | 1011.0 |
| 20260507015046 | 18 | 318 | 0.0 | 3.2 | 0.00 | 0.00 | 0.00 | 73 | 1011.0 |
| 20260507014546 | 18 | 320 | 0.0 | 3.2 | 0.00 | 0.00 | 0.00 | 73 | 1010.0 |
| 20260507014046 | 18 | 44 | 1.6 | 4.8 | 0.00 | 0.00 | 0.00 | 73 | 1010.0 |
| 20260507013546 | 18 | 317 | 0.0 | 4.8 | 0.00 | 0.00 | 0.00 | 74 | 1011.0 |
| 20260507012836 | 18 | 49 | 1.6 | 6.4 | 0.00 | 0.00 | 0.00 | 73 | 1011.0 |
| 20260507012335 | 18 | 65 | 1.6 | 4.8 | 0.00 | 0.00 | 0.00 | 74 | 1010.0 |
| 20260507011835 | 18 | 185 | 0.0 | 1.6 | 0.00 | 0.00 | 0.00 | 78 | 1011.0 |
| 20260507011335 | 18 | 0 | 0.0 | 1.6 | 0.00 | 0.00 | 0.00 | 77 | 1011.0 |
| 20260507010835 | 19 | 0 | 0.0 | 0.0 | 0.00 | 0.00 | 0.00 | 77 | 1011.0 |
| 20260507010335 | 19 | 0 | 0.0 | 1.6 | 0.00 | 0.00 | 0.00 | 77 | 1011.0 |
| 20260507005836 | 19 | 38 | 1.6 | 1.6 | 0.00 | 0.00 | 0.00 | 78 | 1010.0 |
| 20260507005336 | 19 | 132 | 0.0 | 1.6 | 0.00 | 0.00 | 0.00 | 79 | 1010.0 |
| 20260507004835 | 19 | 90 | 0.0 | 1.6 | 0.00 | 0.00 | 0.00 | 77 | 1011.0 |
| 20260507004335 | 19 | 213 | 0.0 | 0.0 | 0.00 | 0.00 | 0.00 | 77 | 1010.0 |
| 20260507003409 | 18 | 42 | 0.0 | 1.6 | 0.00 | 0.00 | 0.00 | 76 | 1010.0 |
| 20260507002658 | 18 | 0 | 0.0 | 1.6 | 0.00 | 0.00 | 0.00 | 76 | 1010.0 |
| 20260507002158 | 19 | 51 | 0.0 | 1.6 | 0.00 | 0.00 | 0.00 | 76 | 1010.0 |
| 20260507001657 | 19 | 65 | 1.6 | 1.6 | 0.00 | 0.00 | 0.00 | 76 | 1010.0 |
| 20260507000524 | 20 | 134 | 1.6 | 3.2 | 0.00 | 0.00 | 0.00 | 76 | 1010.0 |
| 20260507000024 | 20 | 127 | 1.6 | 4.8 | 0.00 | 0.00 | 0.00 | 76 | 1010.0 |
| 20260506235525 | 20 | 112 | 3.2 | 4.8 | 0.00 | 0.00 | 0.00 | 74 | 1010.0 |
| 20260506235024 | 20 | 90 | 0.0 | 3.2 | 0.00 | 0.00 | 0.00 | 75 | 1010.0 |
| 20260506234524 | 20 | 70 | 0.0 | 3.2 | 0.00 | 0.00 | 0.00 | 75 | 1010.0 |
| 20260506234025 | 20 | 125 | 0.0 | 3.2 | 0.00 | 0.00 | 0.00 | 75 | 1009.0 |
| 20260506233524 | 20 | 126 | 1.6 | 3.2 | 0.00 | 0.00 | 0.00 | 75 | 1010.0 |
| 20260506233024 | 20 | 179 | 0.0 | 3.2 | 0.00 | 0.00 | 0.00 | 75 | 1010.0 |
| 20260506232313 | 20 | 0 | 0.0 | 1.6 | 0.00 | 0.00 | 0.00 | 73 | 1010.0 |
| 20260506231813 | 20 | 59 | 1.6 | 3.2 | 0.00 | 0.00 | 0.00 | 73 | 1009.0 |
| 20260506231312 | 20 | 32 | 0.0 | 1.6 | 0.00 | 0.00 | 0.00 | 74 | 1009.0 |
| 20260506230813 | 20 | 54 | 1.6 | 4.8 | 0.00 | 0.00 | 0.00 | 71 | 1010.0 |
| 20260506230311 | 20 | 47 | 0.0 | 4.8 | 0.00 | 0.00 | 0.00 | 73 | 1010.0 |
| 20260506225600 | 20 | 52 | 1.6 | 6.4 | 0.00 | 0.00 | 0.00 | 72 | 1010.0 |
| 20260506225059 | 20 | 53 | 0.0 | 1.6 | 0.00 | 0.00 | 0.00 | 71 | 1010.0 |
| 20260506224558 | 20 | 90 | 0.0 | 1.6 | 0.00 | 0.00 | 0.00 | 71 | 1009.0 |
| 20260506224059 | 20 | 90 | 0.0 | 4.8 | 0.00 | 0.00 | 0.00 | 72 | 1009.0 |
| 20260506223558 | 20 | 90 | 1.6 | 3.2 | 0.00 | 0.00 | 0.00 | 71 | 1009.0 |
| 20260506223059 | 20 | 61 | 0.0 | 1.6 | 0.00 | 0.00 | 0.00 | 72 | 1009.0 |
| 20260506222600 | 20 | 90 | 0.0 | 4.8 | 0.00 | 0.00 | 0.00 | 70 | 1009.0 |
| 20260506222058 | 20 | 32 | 0.0 | 3.2 | 0.00 | 0.00 | 0.00 | 72 | 1009.0 |
| 20260506221347 | 20 | 55 | 1.6 | 6.4 | 0.00 | 0.00 | 0.00 | 70 | 1010.0 |
| 20260506220634 | 21 | 108 | 4.8 | 6.4 | 0.00 | 0.00 | 0.00 | 69 | 1009.0 |
| 20260506215924 | 21 | 150 | 0.0 | 3.2 | 0.00 | 0.00 | 0.00 | 69 | 1009.0 |
| 20260506215424 | 21 | 30 | 0.0 | 4.8 | 0.00 | 0.00 | 0.00 | 70 | 1009.0 |
| 20260506214711 | 21 | 304 | 0.0 | 4.8 | 0.00 | 0.00 | 0.00 | 68 | 1009.0 |
| 20260506214213 | 21 | 179 | 0.0 | 6.4 | 0.00 | 0.00 | 0.00 | 70 | 1009.0 |
| 20260506213712 | 21 | 76 | 3.2 | 3.2 | 0.00 | 0.00 | 0.00 | 71 | 1009.0 |
| 20260506213212 | 21 | 90 | 1.6 | 3.2 | 0.00 | 0.00 | 0.00 | 69 | 1009.0 |
| 20260506212711 | 21 | 277 | 1.6 | 4.8 | 0.00 | 0.00 | 0.00 | 68 | 1009.0 |
| 20260506212211 | 21 | 132 | 0.0 | 4.8 | 0.00 | 0.00 | 0.00 | 69 | 1009.0 |
| 20260506211713 | 21 | 119 | 3.2 | 4.8 | 0.00 | 0.00 | 0.00 | 68 | 1009.0 |
| 20260506211211 | 21 | 42 | 1.6 | 4.8 | 0.00 | 0.00 | 0.00 | 68 | 1009.0 |
| 20260506210713 | 20 | 63 | 0.0 | 6.4 | 0.00 | 0.00 | 0.00 | 68 | 1009.0 |
| 20260506210211 | 20 | 48 | 3.2 | 4.8 | 0.00 | 0.00 | 0.00 | 68 | 1009.0 |
| 20260506205711 | 20 | 90 | 0.0 | 3.2 | 0.00 | 0.00 | 0.00 | 70 | 1009.0 |
| 20260506205212 | 20 | 58 | 1.6 | 11.3 | 0.00 | 0.00 | 0.00 | 69 | 1009.0 |
| 20260506204713 | 20 | 221 | 3.2 | 4.8 | 0.00 | 0.00 | 0.00 | 69 | 1009.0 |
| 20260506204211 | 20 | 52 | 3.2 | 6.4 | 0.00 | 0.00 | 0.00 | 71 | 1009.0 |
| 20260506203459 | 20 | 77 | 3.2 | 4.8 | 0.00 | 0.00 | 0.00 | 69 | 1009.0 |
| 20260506203001 | 20 | 140 | 0.0 | 6.4 | 0.00 | 0.00 | 0.00 | 69 | 1009.0 |
| 20260506202459 | 20 | 74 | 6.4 | 9.7 | 0.00 | 0.00 | 0.00 | 68 | 1009.0 |
| 20260506201959 | 21 | 211 | 1.6 | 6.4 | 0.00 | 0.00 | 0.00 | 68 | 1009.0 |
| 20260506201459 | 20 | 60 | 1.6 | 9.7 | 0.00 | 0.00 | 0.00 | 68 | 1009.0 |
| 20260506201000 | 21 | 179 | 0.0 | 9.7 | 0.00 | 0.00 | 0.00 | 68 | 1009.0 |
| 20260506200459 | 21 | 111 | 4.8 | 6.4 | 0.00 | 0.00 | 0.00 | 68 | 1009.0 |
| 20260506195747 | 21 | 151 | 1.6 | 14.5 | 0.00 | 0.00 | 0.00 | 70 | 1009.0 |
| 20260506195247 | 21 | 21 | 1.6 | 6.4 | 0.00 | 0.00 | 0.00 | 68 | 1009.0 |
| 20260506194747 | 21 | 145 | 3.2 | 4.8 | 0.00 | 0.00 | 0.00 | 68 | 1009.0 |
| 20260506194247 | 21 | 118 | 3.2 | 12.9 | 0.00 | 0.00 | 0.00 | 66 | 1009.0 |
| 20260506193748 | 21 | 42 | 3.2 | 11.3 | 0.00 | 0.00 | 0.00 | 67 | 1009.0 |
| 20260506193248 | 21 | 90 | 0.0 | 8.0 | 0.00 | 0.00 | 0.00 | 65 | 1009.0 |
| 20260506192748 | 21 | 50 | 4.8 | 9.7 | 0.00 | 0.00 | 0.00 | 66 | 1009.0 |
| 20260506192247 | 21 | 320 | 1.6 | 8.0 | 0.00 | 0.00 | 0.00 | 66 | 1009.0 |
| 20260506191747 | 21 | 24 | 1.6 | 8.0 | 0.00 | 0.00 | 0.00 | 70 | 1009.0 |
| 20260506191248 | 21 | 139 | 6.4 | 8.0 | 0.00 | 0.00 | 0.00 | 69 | 1009.0 |
| 20260506190747 | 20 | 81 | 4.8 | 4.8 | 0.00 | 0.00 | 0.00 | 70 | 1009.0 |
| 20260506190248 | 20 | 68 | 1.6 | 8.0 | 0.00 | 0.00 | 0.00 | 72 | 1009.0 |
| 20260506185748 | 20 | 75 | 1.6 | 11.3 | 0.00 | 0.00 | 0.00 | 73 | 1009.0 |
| 20260506185035 | 19 | 90 | 1.6 | 6.4 | 0.00 | 0.00 | 0.00 | 76 | 1009.0 |
| 20260506184535 | 18 | 85 | 4.8 | 11.3 | 0.00 | 0.00 | 0.00 | 75 | 1009.0 |
| 20260506184036 | 18 | 83 | 3.2 | 8.0 | 0.00 | 0.00 | 0.00 | 75 | 1010.0 |
| 20260506183535 | 18 | 136 | 3.2 | 8.0 | 0.00 | 0.00 | 0.00 | 75 | 1010.0 |
| 20260506182823 | 18 | 53 | 0.0 | 8.0 | 0.00 | 0.00 | 0.00 | 79 | 1010.0 |
| 20260506181648 | 18 | 152 | 0.0 | 12.9 | 0.00 | 0.00 | 0.00 | 78 | 1010.0 |
| 20260506181150 | 18 | 274 | 3.2 | 6.4 | 0.00 | 0.00 | 0.00 | 79 | 1010.0 |
| 20260506180648 | 17 | 90 | 3.2 | 8.0 | 0.00 | 0.00 | 0.00 | 79 | 1010.0 |
| 20260506180148 | 17 | 61 | 4.8 | 14.5 | 0.00 | 0.00 | 0.00 | 80 | 1010.0 |
| 20260506175650 | 17 | 189 | 3.2 | 8.0 | 0.00 | 0.00 | 0.00 | 79 | 1010.0 |
| 20260506175149 | 17 | 31 | 1.6 | 8.0 | 0.00 | 0.00 | 0.00 | 84 | 1010.0 |
| 20260506174648 | 17 | 134 | 1.6 | 9.7 | 0.00 | 0.00 | 0.00 | 84 | 1010.0 |
| 20260506174148 | 17 | 90 | 0.0 | 9.7 | 0.00 | 0.00 | 0.00 | 82 | 1010.0 |
| 20260506173648 | 17 | 137 | 1.6 | 17.7 | 0.00 | 0.00 | 0.00 | 85 | 1010.0 |
| 20260506173148 | 17 | 117 | 1.6 | 11.3 | 0.00 | 0.00 | 0.00 | 83 | 1010.0 |
| 20260506172648 | 17 | 46 | 1.6 | 8.0 | 0.00 | 0.00 | 0.00 | 84 | 1010.0 |
| 20260506172148 | 16 | 296 | 0.0 | 9.7 | 0.00 | 0.00 | 0.00 | 85 | 1010.0 |
| 20260506171650 | 16 | 90 | 0.0 | 11.3 | 0.00 | 0.00 | 0.00 | 85 | 1010.0 |
| 20260506171148 | 16 | 122 | 0.0 | 11.3 | 0.00 | 0.00 | 0.00 | 86 | 1010.0 |
| 20260506170649 | 16 | 90 | 1.6 | 9.7 | 0.00 | 0.00 | 0.00 | 85 | 1010.0 |
| 20260506170150 | 16 | 82 | 6.4 | 24.1 | 0.00 | 0.00 | 0.00 | 86 | 1010.0 |
| 20260506165649 | 16 | 311 | 0.0 | 11.3 | 0.00 | 0.00 | 0.00 | 89 | 1010.0 |
| 20260506165149 | 16 | 232 | 1.6 | 12.9 | 0.00 | 0.00 | 0.00 | 87 | 1010.0 |
| 20260506164649 | 16 | 30 | 1.6 | 9.7 | 0.00 | 0.00 | 0.00 | 88 | 1010.0 |
| 20260506164149 | 16 | 118 | 1.6 | 16.1 | 0.00 | 0.00 | 0.00 | 89 | 1010.0 |
| 20260506163648 | 16 | 137 | 0.0 | 14.5 | 0.00 | 0.00 | 0.00 | 90 | 1010.0 |
| 20260506163148 | 15 | 123 | 4.8 | 9.7 | 0.00 | 0.00 | 0.00 | 89 | 1010.0 |
| 20260506162649 | 15 | 35 | 4.8 | 9.7 | 0.00 | 0.00 | 0.00 | 90 | 1010.0 |
| 20260506162149 | 15 | 166 | 1.6 | 17.7 | 0.00 | 0.00 | 0.00 | 88 | 1010.0 |
| 20260506161648 | 15 | 197 | 4.8 | 16.1 | 0.00 | 0.00 | 0.00 | 90 | 1010.0 |
| 20260506161148 | 15 | 152 | 4.8 | 8.0 | 0.00 | 0.00 | 0.00 | 90 | 1010.0 |
| 20260506160648 | 15 | 227 | 1.6 | 14.5 | 0.00 | 0.00 | 0.00 | 91 | 1010.0 |
| 20260506160149 | 15 | 161 | 1.6 | 11.3 | 0.00 | 0.00 | 0.00 | 91 | 1010.0 |
| 20260506155648 | 15 | 90 | 0.0 | 12.9 | 0.00 | 0.00 | 0.00 | 92 | 1010.0 |
| 20260506154937 | 15 | 73 | 1.6 | 16.1 | 0.00 | 0.00 | 0.00 | 92 | 1010.0 |
| 20260506154437 | 15 | 90 | 0.0 | 20.9 | 0.00 | 0.00 | 0.00 | 92 | 1011.0 |
| 20260506153515 | 15 | 65 | 3.2 | 9.7 | 0.00 | 0.00 | 0.00 | 93 | 1010.0 |
| 20260506153014 | 15 | 123 | 3.2 | 9.7 | 0.00 | 0.00 | 0.00 | 93 | 1010.0 |
| 20260506152515 | 15 | 102 | 4.8 | 29.0 | 0.00 | 0.00 | 0.00 | 93 | 1010.0 |
| 20260506151803 | 15 | 93 | 16.1 | 24.1 | 0.00 | 0.00 | 0.00 | 92 | 1011.0 |
| 20260506151050 | 15 | 166 | 3.2 | 8.0 | 0.00 | 0.00 | 0.00 | 93 | 1011.0 |
| 20260506150552 | 14 | 134 | 3.2 | 12.9 | 0.00 | 0.00 | 0.00 | 93 | 1011.0 |
| 20260506150051 | 14 | 117 | 6.4 | 12.9 | 0.00 | 0.00 | 0.00 | 92 | 1011.0 |
| 20260506145551 | 14 | 113 | 4.8 | 11.3 | 0.00 | 0.00 | 0.00 | 92 | 1011.0 |
| 20260506145052 | 14 | 152 | 1.6 | 9.7 | 0.00 | 0.00 | 0.00 | 93 | 1011.0 |
| 20260506144550 | 14 | 154 | 3.2 | 20.9 | 0.00 | 0.00 | 0.00 | 93 | 1011.0 |
| 20260506143627 | 14 | 154 | 3.2 | 11.3 | 0.00 | 0.00 | 0.00 | 92 | 1011.0 |
| 20260506143126 | 14 | 321 | 3.2 | 11.3 | 0.00 | 0.00 | 0.00 | 92 | 1011.0 |
| 20260506142626 | 14 | 92 | 6.4 | 9.7 | 0.00 | 0.00 | 0.00 | 92 | 1011.0 |
| 20260506142126 | 14 | 112 | 3.2 | 8.0 | 0.00 | 0.00 | 0.00 | 92 | 1011.0 |
| 20260506141414 | 15 | 168 | 1.6 | 9.7 | 0.00 | 0.00 | 0.00 | 92 | 1011.0 |
| 20260506140913 | 15 | 83 | 4.8 | 8.0 | 0.00 | 0.00 | 0.00 | 92 | 1011.0 |
| 20260506140413 | 15 | 113 | 3.2 | 4.8 | 0.00 | 0.00 | 0.00 | 91 | 1011.0 |
| 20260506135913 | 15 | 134 | 0.0 | 11.3 | 0.00 | 0.00 | 0.00 | 90 | 1011.0 |
| 20260506135413 | 15 | 77 | 4.8 | 11.3 | 0.00 | 0.00 | 0.00 | 90 | 1011.0 |
| 20260506134914 | 15 | 70 | 4.8 | 6.4 | 0.00 | 0.00 | 0.00 | 91 | 1011.0 |
| 20260506134413 | 15 | 109 | 1.6 | 12.9 | 0.00 | 0.00 | 0.00 | 89 | 1011.0 |
| 20260506133912 | 15 | 40 | 0.0 | 4.8 | 0.00 | 0.00 | 0.00 | 89 | 1012.0 |
| 20260506133201 | 15 | 36 | 1.6 | 6.4 | 0.00 | 0.00 | 0.00 | 88 | 1012.0 |
| 20260506132701 | 15 | 122 | 1.6 | 9.7 | 0.00 | 0.00 | 0.00 | 86 | 1012.0 |
| 20260506132203 | 16 | 179 | 0.0 | 9.7 | 0.00 | 0.00 | 0.00 | 86 | 1012.0 |
| 20260506131701 | 16 | 149 | 0.0 | 11.3 | 0.00 | 0.00 | 0.00 | 85 | 1011.0 |
| 20260506131201 | 16 | 227 | 3.2 | 4.8 | 0.00 | 0.00 | 0.00 | 85 | 1011.0 |
| 20260506130701 | 16 | 90 | 1.6 | 3.2 | 0.00 | 0.00 | 0.00 | 86 | 1011.0 |
| 20260506125950 | 16 | 113 | 0.0 | 3.2 | 0.00 | 0.00 | 0.00 | 85 | 1011.0 |
| 20260506125450 | 16 | 140 | 1.6 | 8.0 | 0.00 | 0.00 | 0.00 | 83 | 1011.0 |
| 20260506124951 | 16 | 143 | 1.6 | 6.4 | 0.00 | 0.00 | 0.00 | 84 | 1011.0 |
| 20260506124450 | 16 | 118 | 0.0 | 14.5 | 0.00 | 0.00 | 0.00 | 82 | 1011.0 |
| 20260506123740 | 16 | 111 | 1.6 | 9.7 | 0.00 | 0.00 | 0.00 | 80 | 1011.0 |
| 20260506123239 | 16 | 143 | 1.6 | 4.8 | 0.00 | 0.00 | 0.00 | 79 | 1011.0 |
| 20260506122526 | 17 | 134 | 1.6 | 4.8 | 0.00 | 0.00 | 0.00 | 77 | 1011.0 |
| 20260506122026 | 17 | 71 | 1.6 | 8.0 | 0.00 | 0.00 | 0.00 | 77 | 1011.0 |
| 20260506121314 | 17 | 178 | 1.6 | 6.4 | 0.00 | 0.00 | 0.00 | 75 | 1012.0 |
| 20260506120813 | 17 | 179 | 1.6 | 9.7 | 0.00 | 0.00 | 0.00 | 75 | 1011.0 |
| 20260506120312 | 17 | 50 | 0.0 | 8.0 | 0.00 | 0.00 | 0.00 | 73 | 1011.0 |
| 20260506115814 | 17 | 134 | 3.2 | 14.5 | 0.00 | 0.00 | 0.00 | 74 | 1011.0 |